[[{"header":{"parameterUnit":"m.s-1","parameterCategory":1,"la1":30.2991,"la2":30.254,"lo1":-89.0895,"lo2":-89.0444,"dy":0.0017,"dx":0.0017,"nx":28,"ny":28,"refTime":"2023-10-05T21:00:00:Z","depth":0,"parameterNumber":2,"parameterNumberName":"U-component_of_WINDS"},"data":[0,0,0,0,0,0,0,0,0,0,0,0,0,0,0,0,0,0,0,0,0,0,0,0,0,0,0,0,0,0,0,0,0,0,0,0,0,0,0,0,0,0,0,0,0,0,0,0,0,0,0,0,0,0,0,0,0,0,-0.9639,-0.964,0,-0.9698,-0.9699,-0.97,-0.9669,-0.9668,-0.9666,-0.9665,-0.9726,-0.9729,-0.9732,0,0,0,0,0,0,0,0,0,0,0,0,0,-0.95,-0.9502,-0.9639,-0.964,-0.9641,-0.9698,-0.9699,-0.97,-0.967,-0.9668,-0.9666,-0.9664,-0.9725,-0.9729,-0.9733,0,0,0,0,0,0,0,0,0,0,0,0,0,-0.956,-0.9503,-0.9639,-0.9632,-0.9632,-0.9698,-0.9699,-0.97,-0.967,-0.9668,-0.9665,-0.9663,-0.9724,-0.9728,-0.9733,-0.9809,0,0,-0.9747,-0.9749,0,0,0,0,0,0,0,0,-0.9556,-0.9565,-0.9633,-0.9633,-0.9633,-0.9674,-0.9672,-0.9737,-0.9671,-0.9656,-0.9665,-0.9662,-0.9711,-0.9716,-0.9733,-0.9812,-0.9814,-0.9748,-0.9751,-0.9753,-0.9754,0,0,0,0,0,0,0,-0.9552,-0.9562,-0.9663,-0.9634,-0.9634,-0.9626,-0.9632,-0.9684,-0.9696,-0.9657,-0.9655,-0.9662,-0.971,-0.9728,-0.9734,-0.9815,-0.9748,-0.9752,-0.9755,-0.9756,-0.9959,-0.9962,0,0,0,0,0,0,-0.9548,-0.9559,-0.9661,-0.9664,-0.9588,-0.9631,-0.9637,-0.9663,-0.9695,-0.9698,-0.9664,-0.9661,-0.9722,-0.9729,-0.9736,-0.9827,-0.9752,-0.9757,-0.9759,-0.9957,-0.996,-0.9963,0,0,0,0,0,0,-0.9545,-0.9558,-0.9658,-0.9611,-0.9623,-0.9636,-0.9665,-0.9666,-0.9684,-0.9701,-0.9703,-0.968,-0.972,-0.9729,-0.9791,-0.9829,-0.9759,-0.9763,-0.9954,-0.9958,-0.9961,-1.0011,0,0,0,0,0,0,-0.9542,-0.9557,-0.9586,-0.9612,-0.9626,-0.9713,-0.9667,-0.9669,-0.9692,-0.9687,-0.9716,-0.9719,-0.9719,-0.9784,-0.9796,-0.9834,-0.9767,-0.995,-0.9955,-0.996,-1.0006,-1.0016,-1.0024,0,0,0,0,0,-0.9537,-0.9598,-0.9588,-0.96,-0.9663,-0.9715,-0.9723,-0.9722,-0.9695,-0.9724,-0.9735,-0.9718,-0.9822,-0.9791,-0.9803,-0.9844,-0.9948,-0.9954,-0.996,-1.0002,-1.0014,-1.0024,0,0,0,0,0,0,-0.9577,-0.9601,-0.959,-0.9662,-0.9686,-0.971,-0.9747,-0.9734,-0.9768,-0.9763,-0.9759,-0.9766,-0.983,-0.9843,-0.9807,-0.9919,-0.9881,-0.989,-0.9909,-0.992,-0.993,-0.9926,-0.9771,0,0,0,0,0,-0.9594,-0.9634,-0.9653,-0.9714,-0.9727,-0.9735,-0.9758,-0.9754,-0.978,-0.979,-0.9805,-0.9831,-0.987,-0.9895,-0.9932,-1.0006,-1.0013,-1.004,-1.005,-1.0057,-1.0066,-1.0106,-1.0119,-0.9982,-0.9982,-0.9982,0,0,-0.963,-0.9648,-0.9674,-0.9723,-0.9742,-0.9784,-0.9744,-0.979,-0.9821,-0.9797,-0.9857,-0.9868,-0.9897,-0.9965,-0.9996,-0.9978,-1.0104,-1.0065,-1.0071,-1.0075,-1.0114,-1.0127,-1.0138,-0.9986,-0.9985,-0.9985,0,0,-0.9717,-0.9734,-0.9788,-0.9807,-0.9835,-0.984,-0.9852,-0.9878,-0.9885,-0.9944,-0.9926,-0.9963,-1.0029,-1.005,-1.007,-1.0163,-1.0149,-1.0175,-1.0224,-1.0264,-1.0275,-1.0284,-1.0319,-1.0331,-1.0182,-1.0182,-1.0182,0,-0.9759,-0.9821,-0.9816,-0.9864,-0.9886,-0.9865,-0.9919,-0.9937,-0.9977,-0.9993,-0.9971,-1.0054,-1.0071,-1.0144,-1.0167,-1.0183,-1.0197,-1.0173,-1.0273,-1.0283,-1.0292,-1.0325,-1.0337,-1.0185,-1.0185,-1.0185,-1.0184,0,-0.9871,-0.9914,-0.9954,-0.9992,-1.0018,-1.0068,-1.0071,-1.0098,-1.0092,-1.0098,-1.0158,-1.0178,-1.0218,-1.0235,-1.0229,-1.0307,-1.0295,-1.0273,-1.0236,-1.0308,-1.0339,-1.0351,-1.019,-1.0189,-1.0188,-1.0187,0,0,-0.9988,-1.0021,-1.0036,-1.0053,-1.0082,-1.0116,-1.0164,-1.0203,-1.0227,-1.0254,-1.0295,-1.0351,-1.0331,-1.0353,-1.0349,-1.0383,-1.0457,-1.0357,-1.0358,-1.0377,-1.0545,-1.0562,-1.0577,-1.0446,-1.0449,-1.045,-1.0543,0,-1.0078,-1.0164,-1.0161,-1.0241,-1.0282,-1.0261,-1.0303,-1.0326,-1.0333,-1.0368,-1.0375,-1.0415,-1.0385,-1.0398,-1.0431,-1.0441,-1.0491,-1.0434,-1.0486,-1.0488,-1.0482,-1.0593,-1.0612,-1.0698,-1.0555,-1.0557,-1.0558,0,-1.0196,-1.0227,-1.0312,-1.0334,-1.0351,-1.0389,-1.0424,-1.0458,-1.0482,-1.0485,-1.0508,-1.0498,-1.0548,-1.0507,-1.0575,-1.0536,-1.0556,-1.0564,-1.0567,-1.0574,-1.0529,-1.0604,-1.0725,-1.0739,-1.0577,-1.0575,-1.0574,0,-1.0275,-1.0337,-1.0396,-1.0411,-1.0438,-1.0466,-1.0478,-1.05,-1.0524,-1.0554,-1.0569,-1.0604,-1.0624,-1.0651,-1.0651,-1.0621,-1.072,-1.0679,-1.0724,-1.0724,-1.0748,-1.0747,-1.0877,-1.0758,-1.0758,-1.0758,-1.0757,0,-1.0378,-1.0431,-1.0432,-1.0468,-1.0526,-1.0521,-1.0579,-1.0588,-1.0608,-1.0645,-1.0629,-1.0665,-1.0661,-1.0697,-1.0696,-1.0753,-1.0762,-1.0765,-1.0765,-1.0768,-1.0768,-1.0783,-1.0778,-1.0761,-1.076,-1.076,-1.0759,0,-1.0477,-1.0479,-1.0542,-1.0562,-1.0569,-1.0611,-1.0628,-1.0662,-1.0667,-1.0715,-1.0725,-1.0733,-1.0774,-1.0775,-1.0823,-1.0822,-1.0892,-1.0884,-1.0884,-1.0883,-1.0929,-1.0925,-1.1074,-1.1094,-1.0961,-1.0962,-1.0963,0,-1.0544,-1.0584,-1.0608,-1.0632,-1.0646,-1.0685,-1.0708,-1.0704,-1.0729,-1.0759,-1.079,-1.0829,-1.0861,-1.0927,-1.0937,-1.0972,-1.0966,-1.1016,-1.0972,-1.0974,-1.0969,-1.0967,-1.0972,-1.1025,-1.1027,-1.1028,-1.1029,0,-1.0662,-1.0661,-1.0695,-1.073,-1.0758,-1.0786,-1.0811,-1.0831,-1.0829,-1.0858,-1.09,-1.0924,-1.0972,-1.1012,-1.1046,-1.1059,-1.1044,-1.1042,-1.1055,-1.106,-1.1059,-1.1061,-1.091,-1.104,-1.1039,-1.1038,-1.1037,-1.1037,-1.0748,-1.0783,-1.0805,-1.0844,-1.0862,-1.0886,-1.0919,-1.0927,-1.0962,-1.1,-1.0995,-1.1041,-1.1064,-1.1108,-1.1124,-1.116,-1.1143,-1.1161,-1.1166,-1.1171,-1.1176,-1.1051,-1.1166,-1.1166,-1.1165,-1.1165,-1.1165,0,-1.0867,-1.088,-1.0916,-1.0951,-1.0981,-1.0963,-1.099,-1.1016,-1.1058,-1.1079,-1.111,-1.1158,-1.1196,-1.1207,-1.1244,-1.127,-1.1265,-1.128,-1.128,-1.1283,-1.1189,-1.1175,-1.1284,-1.1284,-1.1284,-1.1284,-1.1284,-1.1284,-1.0933,-1.0991,-1.0992,-1.1059,-1.1071,-1.1116,-1.1133,-1.1155,-1.1172,-1.1226,-1.1257,-1.1264,-1.1282,-1.1319,-1.1353,-1.1355,-1.137,-1.1389,-1.1388,-1.1301,-1.1289,-1.1278,-1.1265,-1.1391,-1.1392,-1.1479,-1.148,-1.1481]},{"header":{"parameterUnit":"m.s-1","parameterCategory":1,"la1":30.2991,"la2":30.254,"lo1":-89.0895,"lo2":-89.0444,"dy":0.0017,"dx":0.0017,"nx":28,"ny":28,"refTime":"2023-10-05T21:00:00:Z","depth":0,"parameterNumber":3,"parameterNumberName":"V-component_of_WINDS"},"data":[0,0,0,0,0,0,0,0,0,0,0,0,0,0,0,0,0,0,0,0,0,0,0,0,0,0,0,0,0,0,0,0,0,0,0,0,0,0,0,0,0,0,0,0,0,0,0,0,0,0,0,0,0,0,0,0,0,0,-7.5701,-7.5703,0,-7.5857,-7.5859,-7.5861,-7.5788,-7.5784,-7.578,-7.5776,-7.593,-7.5937,-7.5945,0,0,0,0,0,0,0,0,0,0,0,0,0,-7.5334,-7.5341,-7.5701,-7.5703,-7.5705,-7.5857,-7.5859,-7.5861,-7.5788,-7.5784,-7.5779,-7.5774,-7.5927,-7.5936,-7.5946,0,0,0,0,0,0,0,0,0,0,0,0,0,-7.5492,-7.5343,-7.5701,-7.5687,-7.5688,-7.5857,-7.5859,-7.5862,-7.5789,-7.5783,-7.5778,-7.5772,-7.5924,-7.5935,-7.5947,-7.6136,0,0,-7.5982,-7.5987,0,0,0,0,0,0,0,0,-7.5483,-7.5505,-7.5687,-7.5688,-7.5689,-7.5797,-7.5786,-7.5954,-7.5791,-7.5751,-7.5776,-7.5769,-7.589,-7.5904,-7.5946,-7.6144,-7.615,-7.5983,-7.599,-7.5995,-7.5999,0,0,0,0,0,0,0,-7.5472,-7.5498,-7.5763,-7.569,-7.5691,-7.5671,-7.5687,-7.5817,-7.5851,-7.5754,-7.5749,-7.5768,-7.5889,-7.5935,-7.5949,-7.6152,-7.5983,-7.5993,-7.6001,-7.6005,-7.6512,-7.6519,0,0,0,0,0,0,-7.5462,-7.549,-7.5758,-7.5767,-7.557,-7.5683,-7.57,-7.5768,-7.585,-7.5856,-7.5773,-7.5764,-7.5918,-7.5935,-7.5954,-7.6181,-7.5995,-7.6006,-7.6013,-7.6506,-7.6514,-7.6521,0,0,0,0,0,0,-7.5455,-7.5487,-7.5751,-7.5627,-7.5659,-7.5695,-7.5772,-7.5774,-7.582,-7.5865,-7.5869,-7.5814,-7.5914,-7.5938,-7.6092,-7.6186,-7.6011,-7.6022,-7.6498,-7.6508,-7.6517,-7.6638,0,0,0,0,0,0,-7.5445,-7.5485,-7.5559,-7.563,-7.5666,-7.5889,-7.5778,-7.5782,-7.5841,-7.5831,-7.5904,-7.5911,-7.5911,-7.6075,-7.6104,-7.6199,-7.6031,-7.649,-7.6503,-7.6514,-7.6626,-7.665,-7.6672,0,0,0,0,0,-7.5432,-7.5585,-7.5563,-7.5596,-7.576,-7.5895,-7.5915,-7.5915,-7.5849,-7.5923,-7.5951,-7.5908,-7.6171,-7.6091,-7.6123,-7.6223,-7.6484,-7.6499,-7.6513,-7.6615,-7.6646,-7.6671,0,0,0,0,0,0,-7.5523,-7.5594,-7.557,-7.5752,-7.5818,-7.5882,-7.5975,-7.5947,-7.6031,-7.6018,-7.6011,-7.6029,-7.6189,-7.6221,-7.6131,-7.641,-7.6317,-7.6339,-7.6384,-7.6413,-7.6436,-7.6425,-7.6041,0,0,0,0,0,-7.5564,-7.567,-7.5725,-7.588,-7.5915,-7.594,-7.5998,-7.5992,-7.6059,-7.6086,-7.6126,-7.6191,-7.6288,-7.6352,-7.6443,-7.6629,-7.6644,-7.6713,-7.6736,-7.6755,-7.6774,-7.6874,-7.6906,-7.6569,-7.6569,-7.6569,0,0,-7.565,-7.5702,-7.5769,-7.59,-7.595,-7.6058,-7.5964,-7.6081,-7.616,-7.6103,-7.6252,-7.6283,-7.6355,-7.6526,-7.6604,-7.6558,-7.687,-7.6774,-7.6789,-7.6797,-7.6893,-7.6924,-7.6953,-7.6579,-7.6577,-7.6575,0,0,-7.5863,-7.5913,-7.6048,-7.61,-7.6179,-7.6194,-7.6226,-7.6295,-7.6315,-7.6464,-7.6424,-7.6516,-7.6683,-7.6737,-7.6785,-7.7017,-7.6981,-7.7047,-7.7168,-7.7265,-7.7292,-7.7315,-7.7398,-7.7428,-7.7065,-7.7066,-7.7066,0,-7.5959,-7.6122,-7.6119,-7.6241,-7.6299,-7.6254,-7.6389,-7.644,-7.6543,-7.6584,-7.6531,-7.6741,-7.6786,-7.6969,-7.7025,-7.7066,-7.7102,-7.7039,-7.7289,-7.7312,-7.7334,-7.7413,-7.7444,-7.7073,-7.7072,-7.7072,-7.7071,0,-7.6237,-7.635,-7.6449,-7.6553,-7.6621,-7.6749,-7.6764,-7.6833,-7.6821,-7.6841,-7.6993,-7.7046,-7.7147,-7.719,-7.7178,-7.7371,-7.734,-7.7289,-7.7195,-7.7374,-7.7447,-7.7478,-7.7084,-7.7081,-7.7079,-7.7077,0,0,-7.6512,-7.6613,-7.6649,-7.6695,-7.6778,-7.6864,-7.6989,-7.709,-7.715,-7.7222,-7.7326,-7.7468,-7.7421,-7.7477,-7.747,-7.7556,-7.7736,-7.7493,-7.7495,-7.7537,-7.7951,-7.799,-7.8025,-7.7712,-7.7717,-7.7722,-7.7945,0,-7.673,-7.6952,-7.6953,-7.7155,-7.7259,-7.7218,-7.7326,-7.7387,-7.7409,-7.7498,-7.7521,-7.7623,-7.7553,-7.7586,-7.7669,-7.7696,-7.7819,-7.768,-7.7806,-7.7811,-7.7791,-7.8063,-7.8105,-7.8313,-7.7974,-7.7978,-7.7982,0,-7.7015,-7.7099,-7.7313,-7.7381,-7.7424,-7.7522,-7.7615,-7.7701,-7.7769,-7.7779,-7.7841,-7.7821,-7.7946,-7.7848,-7.8019,-7.7925,-7.7976,-7.7997,-7.8005,-7.8017,-7.7908,-7.8083,-7.8379,-7.8411,-7.8027,-7.8024,-7.802,0,-7.7195,-7.7361,-7.751,-7.7551,-7.7634,-7.7703,-7.774,-7.7803,-7.7863,-7.7943,-7.7982,-7.8075,-7.8126,-7.8197,-7.8202,-7.813,-7.8374,-7.8276,-7.8384,-7.8384,-7.8438,-7.8435,-7.8747,-7.847,-7.847,-7.8469,-7.8469,0,-7.7439,-7.7572,-7.7592,-7.7685,-7.7831,-7.783,-7.7974,-7.8004,-7.806,-7.8156,-7.8124,-7.8214,-7.8215,-7.8306,-7.831,-7.845,-7.8473,-7.8483,-7.8483,-7.8487,-7.8486,-7.8521,-7.8507,-7.8478,-7.8476,-7.8474,-7.8473,0,-7.7665,-7.7684,-7.7845,-7.791,-7.7929,-7.8034,-7.8089,-7.8176,-7.8194,-7.8316,-7.8344,-7.8373,-7.8478,-7.849,-7.8612,-7.8615,-7.8784,-7.8768,-7.8763,-7.876,-7.8867,-7.8857,-7.9214,-7.926,-7.8953,-7.8956,-7.8958,0,-7.782,-7.7922,-7.7998,-7.8061,-7.8103,-7.8204,-7.8266,-7.8268,-7.8334,-7.8418,-7.8495,-7.8597,-7.868,-7.885,-7.888,-7.8973,-7.8959,-7.9078,-7.8973,-7.8974,-7.8961,-7.8956,-7.8965,-7.9098,-7.9102,-7.9104,-7.9106,0,-7.8094,-7.8098,-7.819,-7.8286,-7.8362,-7.8437,-7.8507,-7.856,-7.857,-7.8645,-7.8754,-7.8818,-7.8943,-7.9045,-7.9137,-7.9172,-7.9141,-7.9139,-7.9169,-7.9174,-7.9167,-7.9173,-7.8818,-7.9131,-7.9129,-7.9127,-7.9126,-7.9125,-7.8289,-7.8377,-7.8445,-7.8549,-7.8602,-7.8668,-7.8753,-7.8783,-7.8874,-7.8979,-7.8973,-7.9093,-7.9156,-7.9276,-7.9319,-7.9411,-7.9371,-7.9414,-7.9425,-7.9436,-7.9447,-7.9152,-7.9427,-7.9426,-7.9426,-7.9425,-7.9425,0,-7.8561,-7.8603,-7.8698,-7.8798,-7.888,-7.8845,-7.892,-7.899,-7.9097,-7.9159,-7.9242,-7.9366,-7.9465,-7.9503,-7.9599,-7.9665,-7.9653,-7.969,-7.9686,-7.9694,-7.9477,-7.9442,-7.9698,-7.9698,-7.9698,-7.9698,-7.9698,-7.9698,-7.8713,-7.886,-7.8872,-7.9045,-7.9084,-7.9204,-7.925,-7.931,-7.936,-7.9502,-7.9584,-7.9609,-7.9662,-7.9761,-7.985,-7.9858,-7.9895,-7.9938,-7.994,-7.9737,-7.9709,-7.9683,-7.965,-7.9946,-7.9946,-8.015,-8.0152,-8.0153]}]]